Location: Newark
(25.4800°N, 85.7200°E)
Time: 22:44:56
(UTC+00:00)

Explorer 11/Cluster Stage 4 - Pass Details

Date: 27 August 2019
Orbit: 467 x 1260 km, 28.8° (Epoch: 15 September)

Event Time Altitude Azimuth Distance (km) Brightness Sun altitude
Rises 09:11:23 0° 281° (W) 4,186 10.9 46.4°
Reaches altitude 10° 09:14:39 10° 273° (W) 3,177 10.7 45.7°
Maximum altitude 09:21:47 36° 210° (SSW) 1,707 9.3 44.1°
Drops below altitude 10° 09:28:02 10° 146° (SSE) 2,771 9.3 42.7°
Sets 09:30:43 0° 138° (SE) 3,597 9.7 42.1°
